This is the latest recevied weather packets stored in our database for station/object N0HEQ. If no packets are shown the sender has not sent any weather packets the latest 10 day(s).
| Time | Temp. | Humidity | Pressure | Rain* | Wind** | Luminosity | Snow |
|---|---|---|---|---|---|---|---|
| 1777912578 | 20.56° C | 22% | 1011.9 hPa | 0 mm | - | 182 W/m² | - |
| 1777912275 | 20° C | 21% | 1012.2 hPa | 0 mm | - | 204 W/m² | - |
| 1777911971 | 20.56° C | 22% | 1012.4 hPa | 0 mm | - | 186 W/m² | - |
| 1777911667 | 20.56° C | 22% | 1012.2 hPa | 0 mm | - | 176 W/m² | - |
| 1777911363 | 20.56° C | 22% | 1012.2 hPa | 0 mm | - | 103 W/m² | - |
| 1777911061 | 20° C | 22% | 1012.4 hPa | 0 mm | - | 338 W/m² | - |
| 1777910758 | 20° C | 23% | 1012.6 hPa | 0 mm | - | 297 W/m² | - |
| 1777910455 | 19.44° C | 24% | 1012.7 hPa | 0 mm | - | 245 W/m² | - |
| 1777910151 | 19.44° C | 24% | 1012.8 hPa | 0 mm | - | 181 W/m² | - |
| 1777909849 | 18.89° C | 24% | 1012.7 hPa | 0 mm | - | 186 W/m² | - |
| 1777909545 | 19.44° C | 23% | 1012.7 hPa | 0 mm | - | 234 W/m² | - |
| 1777909243 | 19.44° C | 25% | 1012.8 hPa | 0 mm | - | 212 W/m² | - |
| 1777908941 | 18.89° C | 26% | 1012.8 hPa | 0 mm | - | 196 W/m² | - |
| 1777908639 | 18.33° C | 25% | 1013.2 hPa | 0 mm | - | 180 W/m² | - |
| 1777908335 | 17.78° C | 24% | 1012.9 hPa | 0 mm | - | 178 W/m² | - |
| 1777908032 | 17.78° C | 25% | 1013 hPa | 0 mm | - | 172 W/m² | - |
| 1777907728 | 17.78° C | 26% | 1013.2 hPa | 0 mm | - | 172 W/m² | - |
| 1777907427 | 17.78° C | 25% | 1013 hPa | 0 mm | - | 160 W/m² | - |
| 1777907125 | 17.78° C | 26% | 1013.2 hPa | 0 mm | - | 158 W/m² | - |
| 1777906823 | 17.78° C | 25% | 1013.2 hPa | 0 mm | - | 167 W/m² | - |
| 1777906520 | 17.22° C | 27% | 1013.4 hPa | 0 mm | - | 307 W/m² | - |
| 1777906215 | 16.67° C | 26% | 1013 hPa | 0 mm | - | 299 W/m² | - |
| 1777905912 | 16.11° C | 27% | 1012.9 hPa | 0 mm | - | 215 W/m² | - |
| 1777905609 | 16.11° C | 28% | 1012.9 hPa | 0 mm | - | 131 W/m² | - |
| 1777905306 | 15.56° C | 29% | 1013.3 hPa | 0 mm | - | 122 W/m² | - |
* Rain latest hour (hover to see other rain measurements)
** Current wind speed in m/s (hover to see current wind gust speed)